Regional Weather Roundup
Issued by NWS

Home | Current Version | Previous Version | Text Only | Print | Product List | Glossary On
Versions: 1 2 3 4 5 6 7 8 9 10 11 12 13 14 15 16 17 18 19 20 21 22 23 24 25 26 27 28 29 30 31 32 33 34 35 36 37 38 39 40 41 42 43 44 45
000
ASUS45 KBOU 202010
RWRCO

WEATHER ROUNDUP FOR COLORADO
NATIONAL WEATHER SERVICE PUEBLO CO
200 PM MDT FRI APR 20 2018

NOTE: "FAIR" INDICATES FEW OR NO CLOUDS BELOW 12000 FEET WITH NO
SIGNIFICANT WEATHER AND/OR OBSTRUCTIONS TO VISIBILITY.

COZ001>005-013-030-031-202100-
...NORTHWEST COLORADO...

CITY           SKY/WX    TMP DP  RH WIND       PRES   REMARKS
CRAIG          CLOUDY    41  38  89 W10       29.89S
HAYDEN         CLOUDY    40  36  86 W7        29.90S
MEEKER         LGT RAIN  40  35  83 W15       29.91R
RABBIT EARS PA NOT AVBL
STEAMBOAT SPGS CLOUDY    39  36  87 W3        29.87F
WALDEN         CLOUDY    46  23  39 N18G24    29.86S
$$

COZ006>008-011-202100-
...WEST CENTRAL VALLEYS...

CITY           SKY/WX    TMP DP  RH WIND       PRES   REMARKS
GRAND JUNCTION CLOUDY    48  27  44 E10       29.95R
MONTROSE       PTSUNNY   48  26  42 NW17      29.95R
EAGLE          LGT RAIN  40  36  86 S5        29.90R
RIFLE          CLOUDY    39  35  86 W22G32    29.93R
DELTA          NOT AVBL
NUCLA          MOCLDY    52   5  15 W7G16     29.95R
$$

COZ017>023-064>068-202100-
...SOUTHWEST COLORADO...

CITY           SKY/WX    TMP DP  RH WIND       PRES   REMARKS
DURANGO        CLOUDY    43  15  32 W12G20    29.96R
CORTEZ         MOSUNNY   51  20  29 S12       29.96S
PAGOSA SPRINGS CLOUDY    36  23  59 NW3       29.98R
TELLURIDE      PTSUNNY   37  20  51 SE15      29.97R
WOLF CREEK PAS PTSUNNY   19  10  68 S15G23    30.02S WCI   5
$$

COZ009-010-012-014-032>034-037-058>063-202100-
...CENTRAL COLORADO...

CITY           SKY/WX    TMP DP  RH WIND       PRES   REMARKS
ASPEN          CLOUDY    36  34  92 N5        29.90R FOG
BUENA VISTA    LGT SNOW  33  32  94 CALM      29.93F
COPPER MTN     NOT AVBL
BERTHOUD PASS  CLOUDY    23  12  63 SE9G25    29.98R WCI  13
COTTONWOOD PAS SNOW      34  34 100 CALM      29.94S VSB<1/4
GUNNISON       LGT SNOW  30  28  93 W16G26    29.95R VSB 3/4 WCI  19
KREMMLING      CLOUDY    55  32  41 NE8       29.82S
LEADVILLE      LGT SNOW  28  27  96 S13       29.93R VSB 1   WCI  17
MONARCH PASS   SNOW      21  19  93 SW26G35   30.05F VSB 1/2 WCI   4
SALIDA         CLOUDY    37  33  84 CALM      30.00S
SUNLIGHT       CLOUDY    23  21  93 SW12G26   30.00R VSB<1/4 WCI  12
WILKERSON PASS CLOUDY    28  27  93 SW3       30.00R
$$

COZ069>075-202100-
...SAN LUIS VALLEY/SANGRE DE CRISTO MOUNTAINS...

CITY           SKY/WX    TMP DP  RH WIND       PRES   REMARKS
ALAMOSA        PTSUNNY   39  31  72 S17       29.94F
DEL NORTE      MOCLDY    40  16  37 W15G25    29.93S
LA VETA PASS   TSTM      30  28  93 MISG      30.04F VSB 1/2
SAGUACHE       NOT AVBL
$$

COZ035-036-038>040-202100-
...NORTHERN COLORADO FRONT RANGE...

CITY           SKY/WX    TMP DP  RH WIND       PRES   REMARKS
DENVER INTL AP CLOUDY    54  30  40 NW9       29.86F
DMNS CITY PARK NOT AVBL
AURORA         PTSUNNY   55  30  39 N6        29.87F
FRONT RANGE AP PTSUNNY   57  32  38 SE21G32   29.88F
ERIE MUNI ARPT CLOUDY    51  29  41 NW12      29.94R
BOULDER MUN AP CLOUDY    50  28  43 N10       29.89S
CENTENNIAL     PTSUNNY   53  31  42 S9G22     29.87F
BROOMFIELD     MOSUNNY   52  28  40 NW13G20   29.88F
LOVELAND       CLOUDY    51  36  56 NW17      29.88F
LONGMONT       CLOUDY    52  30  43 NW10      29.90F
$$

COZ041-046-047-076>085-087-088-202100-
...PIKES PEAK/PALMER DIVIDE AND SOUTHERN FOOTHILLS...

CITY           SKY/WX    TMP DP  RH WIND       PRES   REMARKS
COLO. SPRINGS  CLOUDY    48  32  53 SE26G35   29.89F
A. F. ACADEMY  LGT RAIN  45  30  57 SE17      29.90R
SCHRIEVER AFB  NOT AVBL
CHEYENNE MTN   NOT AVBL
ELLICOTT         N/A    N/A N/A N/A SE31G38   29.90F
FALCON         PTSUNNY   43  30  59 SE23G29   29.93R
FORT CARSON    CLOUDY    49  32  52 E23G33    29.85F
LIMON          CLOUDY    40  33  76 SE29G41   29.96S
MONUMENT HILL  CLOUDY    46  32  57 SE15G23   29.91S
CANON CITY     LGT RAIN  50  37  62 W16G24    29.86R
WALSENBURG     MOCLDY    52  34  50 SW12G29   29.88S
TRINIDAD       CLOUDY    51  34  52 S25G40    29.88F
$$

COZ042>045-048>051-090-091-202100-
...NORTHEAST COLORADO...

CITY           SKY/WX    TMP DP  RH WIND       PRES   REMARKS
GREELEY ARPT   CLOUDY    57  32  38 E28G33    29.88F
AKRON          CLOUDY    39  36  89 SE26G36   30.03S
BURLINGTON     LGT RAIN  38  35  89 SE22G30   30.07R
WRAY           RAIN      41  36  81 SE12      30.12S
YUMA           NOT AVBL
STERLING       NOT AVBL
HOLYOKE        LGT RAIN  41  37  87 SE18      30.14S
FORT MORGAN    CLOUDY    46  33  59 SE28G37   29.98F
$$

COZ086-089-092>099-202100-
...SOUTHEAST COLORADO...

CITY           SKY/WX    TMP DP  RH WIND       PRES   REMARKS
PUEBLO         CLOUDY    60  33  36 SE29G43   29.82R
LA JUNTA       CLOUDY    51  33  50 SE29G41   29.93S
LAMAR          CLOUDY    45  32  60 SE21G33   30.01S THUNDER
SPRINGFIELD      N/A     44  32  62 SE25G35   30.00F
$$





USA.gov is the U.S. government's official web portal to all federal, state and local government web resources and services.